Location: Châteauvieux
(47.2310°N, 1.3828°E)
Time: 22:50:42
(UTC+00:00)

Cosmos 1606 Rocket - Pass Details

Date: 15 May 2026
Orbit: 595 x 625 km, 82.5° (Epoch: 6 June)

Event Time Altitude Azimuth Distance (km) Brightness Sun altitude
Exits shadow 21:17:14 27° 153° (SSE) 1,185 4.4 -15.3°
Maximum altitude 21:19:16 48° 94° (E) 798 3.8 -15.5°
Drops below altitude 10° 21:23:25 10° 20° (NNE) 1,955 6.6 -15.9°
Sets 21:25:41 0° 15° (NNE) 2,859 7.6 -16.1°
